Wind_Speed
34 36 37 38 39 40 41 40 40 40 38 38 40 40 40 40 36 29 28 31 33 32 33 34 34 35 36 37 37 40 44 48 50 53 54 53 53 53 51 48 46 46 46 46 47 48 49 48 48 48 47 46 45 44 43 42 42 42 40 38 38 36 37 37 35 33 31 28 28 28 28 28 29 29
30 33 35 35 37 37 37 38 40 41 38 37 40 42 41 41 40 35 29 31 34 32 31 33 34 33 34 34 35 37 40 44 48 51 53 53 53 54 53 49 47 46 46 46 47 47 48 49 49 49 49 49 48 46 45 44 43 43 42 41 39 37 35 35 36 37 34 30 31 31 30 31 31 31
27 31 32 31 33 34 34 36 38 39 37 35 35 39 42 43 43 41 35 32 33 31 27 29 32 32 31 30 30 32 35 40 44 48 50 51 52 52 51 48 46 46 47 47 47 48 49 50 50 50 50 50 50 50 48 47 45 43 43 42 42 41 39 36 35 37 37 34 34 33 32 33 33 33
24 28 30 29 31 31 32 34 35 36 35 33 31 31 35 38 39 38 36 34 32 30 25 24 27 30 29 26 25 26 29 34 39 43 46 48 48 47 46 44 42 45 49 50 50 50 51 51 51 51 51 51 51 52 51 50 49 46 45 44 43 42 42 40 37 36 37 37 37 35 33 33 35 35
24 24 28 29 29 29 29 31 34 36 35 31 29 27 27 28 28 29 30 31 30 29 26 24 24 25 26 25 22 22 23 27 32 37 41 42 41 40 39 38 38 42 46 48 49 50 51 52 53 52 52 52 52 53 53 52 51 50 48 46 45 44 42 41 39 38 36 36 37 36 35 34 35 35
26 22 24 27 25 25 26 26 28 34 34 30 29 28 27 26 25 24 24 24 24 24 25 25 24 23 24 25 23 23 23 25 28 31 33 34 34 33 32 33 34 37 40 43 44 46 48 50 53 53 53 52 52 53 54 54 53 52 50 49 47 46 44 43 42 41 39 36 36 36 37 36 36 36
27 22 22 24 23 21 21 21 21 25 27 27 27 27 27 25 23 22 22 21 20 19 20 23 25 24 24 24 24 24 24 23 25 26 28 28 28 29 29 30 32 34 36 38 40 42 44 46 50 52 53 52 52 51 52 53 53 51 50 50 50 49 47 46 45 45 42 40 38 37 38 38 37 36
28 23 20 21 21 20 19 19 19 19 19 20 23 24 24 23 22 21 20 20 20 19 17 20 25 25 24 24 23 23 23 22 22 23 24 25 26 27 28 29 31 32 32 34 36 39 40 42 46 49 50 51 51 51 50 51 52 51 49 49 49 50 49 47 47 48 47 44 42 40 39 39 38 38
28 26 22 20 20 20 20 19 19 19 18 17 20 22 21 19 19 19 19 19 20 21 19 19 21 22 22 22 21 21 22 22 22 23 23 24 24 24 25 26 27 28 30 31 33 35 37 39 41 44 46 47 47 49 51 51 50 50 48 48 48 48 49 47 47 48 49 48 45 44 42 41 40 39
26 28 27 23 21 21 21 20 19 20 19 17 18 20 19 17 17 17 17 17 18 20 21 20 20 20 20 21 21 20 21 22 23 24 24 24 24 23 24 24 25 25 27 29 31 33 34 36 38 40 42 44 44 45 48 50 49 48 47 47 47 45 45 46 46 45 46 48 47 45 45 45 44 41
24 27 29 26 22 22 22 21 20 21 20 19 19 19 18 17 17 18 18 18 19 19 20 21 22 22 20 21 21 21 21 20 21 22 23 24 25 25 25 25 24 23 24 26 27 30 30 31 33 35 38 40 42 44 45 46 46 45 45 47 47 46 44 44 45 44 43 45 46 44 44 45 46 46
22 25 27 27 24 23 23 22 22 22 23 22 22 22 22 21 21 21 20 20 21 21 22 22 23 23 23 22 22 22 21 22 22 23 23 24 25 25 26 25 23 22 22 22 23 25 28 29 30 31 33 35 38 41 43 44 43 42 43 45 46 46 46 45 45 45 44 44 45 45 44 43 44 45
19 23 25 26 25 25 24 24 24 24 25 25 25 24 24 24 24 24 23 22 22 23 23 24 24 24 24 25 25 24 24 25 26 26 25 25 23 22 22 23 23 22 21 21 22 23 25 27 28 29 31 32 34 36 39 41 41 40 42 44 44 44 45 45 45 45 45 45 45 46 45 44 43 43
15 19 23 24 24 25 25 26 26 26 27 27 28 26 25 25 26 26 25 24 24 23 24 25 26 26 27 28 28 29 28 28 27 27 26 26 24 22 22 22 23 23 23 23 23 23 23 24 25 27 29 30 32 33 35 36 36 37 39 40 40 40 41 42 44 45 44 44 44 44 44 44 44 44
11 14 18 20 22 24 26 27 28 28 28 28 29 28 26 26 26 27 28 27 26 26 25 25 26 28 29 30 30 30 31 31 29 27 26 26 26 25 25 25 25 26 25 25 24 23 22 22 23 24 26 27 29 31 33 33 33 35 36 37 36 35 36 37 40 42 42 42 41 42 42 43 43 44
9 11 12 15 18 21 23 26 28 29 30 30 29 29 28 27 27 28 28 28 28 29 28 27 27 28 29 30 31 30 30 30 30 28 26 26 27 27 27 27 27 26 26 25 24 22 21 21 22 22 23 24 26 28 31 32 33 36 37 35 34 34 34 35 36 37 38 39 38 38 39 39 40 41
6 8 9 11 13 16 18 21 25 28 29 30 30 29 29 29 29 29 29 28 28 28 28 29 29 29 27 29 30 29 28 28 29 29 28 28 28 27 27 27 26 24 24 23 23 22 21 21 22 22 22 22 23 25 28 30 32 37 39 36 34 33 33 34 35 36 36 37 37 37 38 38 38 39
6 7 9 11 13 14 16 17 20 24 27 28 29 29 29 29 29 30 31 30 28 28 27 27 29 29 29 29 29 27 26 25 25 25 28 30 30 30 28 26 24 22 21 21 21 22 22 22 23 23 22 22 22 23 25 27 30 36 40 40 37 35 34 34 35 36 37 37 37 37 37 37 38 38
14 12 11 12 12 14 16 16 17 19 22 24 25 26 27 28 28 29 30 30 30 29 28 26 25 25 27 28 29 27 25 23 21 20 20 22 26 27 26 25 23 22 22 21 21 22 22 23 24 23 22 23 24 24 25 27 29 33 39 43 41 38 37 36 35 36 38 38 38 37 37 37 37 38
19 17 15 14 14 15 16 17 17 17 18 20 21 23 24 25 26 27 29 30 30 29 28 27 25 23 22 23 25 26 25 24 22 20 18 18 21 24 25 25 25 25 24 23 22 23 22 21 22 22 21 22 23 24 25 27 29 31 36 41 43 42 40 39 37 36 36 37 38 38 37 37 37 38
16 16 17 18 19 19 18 18 18 17 18 20 22 23 24 25 25 26 27 27 28 28 28 27 26 25 24 22 22 23 24 24 22 23 23 23 22 23 25 26 26 26 26 25 24 24 22 21 21 22 21 22 22 23 24 25 27 29 32 37 41 44 44 43 41 40 39 39 40 41 41 40 39 39
15 16 19 21 23 24 22 21 19 19 19 20 22 24 25 25 26 27 27 26 26 27 27 27 27 27 27 26 24 23 24 23 22 24 26 25 23 24 25 25 26 25 26 25 25 24 24 22 22 22 21 22 23 23 24 24 25 28 30 32 37 41 44 45 46 45 45 44 43 43 43 42 41 41
20 22 23 25 26 28 28 26 25 23 23 23 23 23 24 26 27 27 27 27 26 27 27 27 28 28 28 27 25 24 24 25 24 24 26 25 24 24 24 25 25 25 26 26 25 25 24 23 22 22 22 22 24 25 25 25 25 26 28 30 32 35 38 41 43 44 45 44 44 44 44 43 41 40
22 22 23 24 24 26 28 30 30 29 29 29 28 27 27 27 27 26 27 27 27 27 27 27 26 26 26 26 25 23 24 26 26 25 25 26 25 24 24 24 25 26 26 25 25 25 25 23 23 23 23 23 24 25 26 26 26 27 28 30 31 33 34 36 38 39 40 39 39 40 41 42 42 41
14 14 15 15 15 17 20 22 24 26 27 28 30 31 31 29 26 25 26 26 25 25 27 27 26 24 24 25 25 24 24 26 26 24 24 26 26 25 24 24 25 26 25 23 22 24 24 24 24 23 23 24 25 25 26 25 25 26 27 29 30 32 33 34 36 37 37 36 35 34 35 37 38 39
14 15 16 15 14 14 15 16 17 19 20 23 26 29 31 30 28 27 26 25 25 25 26 27 28 26 25 25 25 25 25 26 26 24 23 23 24 24 25 24 25 26 25 23 22 23 23 23 22 22 22 22 23 25 26 25 24 24 25 27 28 30 31 32 33 35 35 35 34 33 32 33 34 34
16 16 16 16 15 13 13 14 15 17 18 20 23 24 25 27 29 28 27 25 25 25 25 26 28 28 27 26 25 25 25 25 25 24 22 22 23 24 24 24 23 23 22 22 24 25 24 22 22 22 22 21 20 22 24 25 25 24 24 25 25 26 29 30 32 33 33 34 34 34 34 34 34 34
13 14 13 12 11 11 12 13 14 16 19 20 21 22 22 24 26 28 28 27 25 23 23 25 27 27 26 26 26 26 26 26 25 24 22 22 22 23 24 24 23 23 22 22 24 25 23 21 21 21 20 20 21 22 22 23 23 23 23 23 24 25 27 28 31 32 32 33 33 34 35 35 35 35
11 12 10 9 10 11 12 13 14 15 16 18 20 21 20 21 23 25 27 28 27 24 23 23 25 25 24 24 25 26 25 24 24 24 23 22 23 24 24 24 23 24 24 23 24 24 22 21 21 20 21 21 22 23 23 22 22 21 21 23 24 24 26 27 29 31 32 33 33 34 35 36 35 35
11 10 9 8 8 7 8 10 11 11 10 11 16 18 18 19 21 23 25 27 26 24 22 22 23 22 20 19 21 25 25 23 23 24 23 23 25 25 26 25 25 26 27 26 25 24 24 23 22 22 23 23 23 23 23 23 23 22 21 22 22 22 24 26 28 29 30 31 32 33 34 35 35 35
8 7 8 7 4 3 3 5 6 7 8 10 13 16 16 17 19 21 23 25 24 23 23 22 21 19 18 18 20 23 24 24 25 25 24 24 26 26 26 26 27 28 29 28 26 25 25 25 24 23 24 24 25 25 24 24 25 24 24 24 24 23 24 25 26 27 28 29 31 32 33 34 35 35
9 9 9 6 2 1 2 3 4 5 6 11 12 13 14 15 17 20 22 23 23 22 22 21 20 19 19 21 21 22 23 23 23 24 25 25 26 26 26 27 27 27 28 28 28 28 28 28 27 26 25 25 26 26 26 26 27 27 26 26 26 26 26 26 26 26 26 28 30 31 32 34 34 35
11 10 8 5 3 2 2 4 4 3 4 8 9 11 12 13 16 18 21 24 24 22 20 20 21 20 19 20 20 21 21 21 20 20 22 22 22 23 25 27 27 27 27 28 29 30 31 31 30 29 29 28 28 27 26 27 28 28 28 28 28 29 29 28 27 27 27 28 30 31 32 33 34 34
10 8 9 7 4 3 2 1 2 2 4 6 8 11 13 14 15 17 20 23 22 19 18 19 20 20 18 17 17 18 19 20 19 19 20 20 21 22 24 26 27 26 26 27 28 29 30 31 31 32 32 32 31 30 29 30 30 30 30 30 30 30 30 29 29 29 29 29 30 31 32 32 33 33
8 9 10 9 6 4 4 3 1 2 5 7 9 11 13 15 15 15 17 18 17 15 16 17 18 19 17 17 17 17 18 19 20 20 20 20 21 22 23 25 26 26 26 27 28 28 29 30 31 33 33 33 33 33 33 33 33 33 32 32 32 31 31 30 30 29 30 31 31 32 33 34 33 32
11 11 11 12 10 7 4 2 2 3 7 9 9 11 14 15 15 15 17 18 17 16 16 16 17 18 17 17 18 18 19 20 21 22 23 23 23 24 25 27 28 28 28 29 29 29 30 31 32 34 34 34 34 35 35 35 34 34 33 33 33 32 31 30 30 31 32 32 33 34 35 35 34 31
13 11 12 14 14 12 9 6 7 9 10 10 9 11 14 14 14 14 16 16 17 16 16 16 17 17 16 17 17 16 17 18 19 20 22 23 24 25 27 29 30 31 31 32 31 31 32 32 33 33 33 34 35 36 35 33 32 32 32 33 33 32 31 31 32 33 34 34 34 34 34 34 32 28
14 11 11 12 14 15 14 12 12 12 12 12 12 12 14 15 13 11 10 10 11 11 11 12 12 12 13 13 14 15 16 17 18 19 20 21 23 24 26 28 30 31 31 32 32 31 31 31 31 31 31 33 34 34 32 30 29 29 29 30 30 30 31 32 33 34 34 33 33 32 32 31 30 27
15 13 11 11 13 15 15 14 13 13 13 12 12 12 12 13 12 8 6 6 8 8 9 10 10 11 12 13 15 16 17 17 18 19 20 20 21 22 23 24 25 27 28 29 29 29 29 28 28 28 28 29 29 29 28 26 25 25 25 26 27 28 29 31 32 32 32 32 31 31 30 30 29 27
15 13 11 10 12 13 14 13 13 12 11 11 10 10 10 9 9 7 7 8 9 9 10 10 11 11 12 13 14 16 17 17 18 18 19 19 19 20 20 21 21 22 24 25 26 27 26 25 24 23 24 24 25 25 24 24 24 24 24 25 25 25 25 26 27 28 29 30 30 30 30 30 30 28
14 13 11 9 9 10 11 11 10 10 9 8 8 7 6 5 5 5 5 6 7 8 8 9 10 11 12 14 15 16 17 17 17 18 18 18 18 18 18 18 18 20 21 22 23 23 21 20 20 20 21 22 23 24 25 26 27 26 25 24 24 23 24 24 25 26 26 26 27 29 29 29 29 28
14 12 10 8 6 6 6 7 6 6 6 5 5 4 3 2 1 1 2 4 5 6 7 8 9 10 11 12 13 14 15 15 15 16 16 17 17 16 16 16 16 17 18 18 18 17 16 17 18 19 21 22 23 25 27 28 27 26 24 24 23 23 24 24 24 25 25 25 27 28 27 27 28 29
12 11 10 9 7 5 4 3 2 2 2 2 3 3 3 3 3 3 3 3 4 6 6 7 7 8 9 10 10 11 12 13 13 14 14 15 15 14 13 12 12 13 14 15 15 15 16 17 18 19 21 23 24 26 27 27 26 25 24 23 23 23 24 25 25 25 26 26 27 28 28 28 30 31
10 10 9 8 7 6 4 3 2 3 3 3 4 5 6 5 4 4 4 4 4 5 6 7 7 7 8 9 9 9 9 10 12 13 13 13 13 12 11 11 11 12 13 14 16 17 17 18 19 21 23 24 24 25 27 26 26 25 25 24 24 25 25 25 25 26 27 28 29 29 30 31 32 32
10 10 9 8 7 6 5 3 3 4 4 4 5 6 7 6 5 4 4 4 4 5 6 6 6 7 8 8 9 8 9 9 11 13 13 14 14 14 14 14 14 14 15 16 17 19 20 20 22 23 24 24 25 26 27 26 26 26 26 26 27 26 26 26 27 28 30 32 31 30 30 31 32 33
Wind_Direction
252 249 245 245 248 248 249 250 248 246 248 245 245 245 238 230 225 224 224 227 231 236 237 237 237 237 237 237 236 233 231 229 227 225 223 219 218 219 220 220 220 221 222 222 222 222 222 223 224 225 226 227 226 225 224 224 224 226 228 229 227 225 225 223 220 219 217 213 213 215 215 215 220 221
251 247 246 246 248 247 247 248 247 245 247 249 247 243 241 236 231 227 225 228 233 236 238 238 236 236 238 237 236 235 232 230 228 226 223 219 217 217 218 219 219 221 222 223 224 224 224 224 225 226 227 228 228 228 226 225 225 227 228 229 229 228 226 225 224 222 218 214 212 213 213 213 216 218
251 246 246 247 246 246 246 246 245 243 246 252 248 242 242 241 234 229 227 229 233 233 235 237 236 235 237 237 235 234 232 229 228 226 224 221 218 216 217 218 220 222 224 225 226 226 226 226 226 227 228 228 229 229 229 227 226 226 228 229 230 230 228 227 228 225 222 219 215 213 214 214 214 215
252 242 239 240 241 243 245 244 244 243 245 250 246 239 238 237 230 224 222 223 227 229 231 235 236 234 232 230 229 228 228 226 224 224 223 221 219 217 217 219 222 225 227 228 228 228 227 227 227 228 229 229 229 230 230 230 229 227 227 228 230 230 229 229 230 228 226 225 220 215 216 216 215 215
257 244 235 236 238 239 241 242 242 242 242 243 239 233 233 233 228 223 219 219 221 224 227 230 233 232 227 222 216 213 214 215 216 217 218 217 216 214 214 216 221 224 226 227 228 228 228 228 228 228 229 230 231 231 231 231 231 231 229 229 230 231 231 230 229 228 228 227 223 220 220 220 218 218
259 251 236 235 235 233 236 238 239 237 234 234 235 231 230 230 228 225 223 222 221 221 222 223 225 225 221 216 208 202 201 204 206 207 208 208 208 209 211 214 220 224 225 225 227 228 229 229 228 228 228 229 231 232 232 232 232 232 231 231 231 232 232 231 231 230 229 228 225 224 224 223 222 221
257 253 240 235 233 230 233 237 240 236 229 231 237 231 224 224 224 223 224 225 227 226 219 215 216 216 215 213 209 204 201 200 203 206 206 207 209 210 212 215 220 225 226 226 227 228 229 230 230 229 228 228 228 230 232 233 232 232 231 231 231 232 232 233 233 232 231 230 227 226 226 226 225 224
255 253 247 239 233 230 233 235 242 245 236 237 241 229 218 220 222 221 223 225 228 230 223 211 207 206 207 209 206 201 196 193 196 200 202 205 208 211 214 217 221 224 224 225 226 227 229 230 231 230 230 229 228 227 229 231 232 231 230 231 231 231 231 233 234 234 233 231 230 228 227 227 228 228
253 249 249 246 236 231 232 233 239 246 244 244 241 225 214 217 221 220 222 224 226 229 228 217 204 197 196 198 197 194 192 190 191 192 195 200 203 207 211 214 217 219 220 221 223 225 227 229 230 230 230 230 229 229 229 229 230 229 228 229 229 230 230 231 233 235 234 233 231 230 228 228 228 228
251 244 244 248 241 233 231 231 235 242 244 243 234 217 209 214 222 224 226 227 226 227 228 224 214 204 199 198 199 199 197 196 196 195 195 198 201 204 207 210 212 214 216 218 220 223 225 227 229 230 231 230 228 228 230 231 231 230 228 228 228 228 228 228 229 232 234 234 233 232 231 230 229 228
251 241 239 243 242 236 232 230 233 238 240 237 227 219 219 223 226 228 228 227 226 226 225 224 220 216 213 210 208 207 205 203 202 201 202 203 204 206 208 210 211 211 214 217 219 221 224 227 229 229 230 231 230 228 228 229 230 230 229 229 229 228 227 226 225 226 230 233 234 234 233 231 231 231
248 239 235 237 238 236 234 232 232 234 237 236 232 228 227 229 229 229 227 224 223 223 222 222 221 217 215 215 214 210 207 206 205 206 209 212 213 214 215 214 213 212 215 218 221 222 223 225 227 228 229 230 231 230 229 227 227 226 225 226 227 227 227 227 226 224 226 231 234 234 234 233 232 232
245 239 235 235 235 236 236 236 235 234 233 235 236 234 229 227 227 227 225 224 223 222 219 219 221 217 214 215 215 210 208 209 210 210 211 216 219 220 223 223 220 217 216 218 220 222 223 224 225 226 227 227 227 228 229 228 226 222 222 223 224 226 226 226 227 226 225 228 231 234 235 235 236 236
241 239 237 237 236 235 236 236 236 236 234 233 234 235 232 227 225 223 223 223 223 223 219 217 218 218 216 217 218 215 212 210 213 214 213 216 218 218 222 225 223 221 218 218 220 220 221 223 224 225 227 227 227 227 228 229 225 219 218 221 223 225 226 226 226 226 225 226 230 233 234 235 237 238
237 235 237 239 238 238 238 237 236 235 234 233 233 233 231 227 224 223 222 222 221 221 220 218 217 219 220 220 220 220 216 212 211 214 215 217 218 217 220 224 224 222 219 219 221 221 221 223 225 226 227 226 228 228 228 229 222 213 214 219 222 224 226 226 226 227 226 226 228 231 233 235 236 237
245 236 233 234 234 236 237 237 237 236 234 233 233 232 229 225 223 223 223 225 224 222 220 218 219 222 223 223 221 221 221 218 214 213 215 218 220 220 223 226 228 228 224 223 225 225 225 226 227 229 228 227 227 227 228 229 222 212 210 216 220 221 223 224 224 225 225 225 226 228 230 231 232 233
260 246 242 243 239 235 234 233 233 234 235 235 235 234 232 229 225 223 223 225 226 226 224 222 221 222 222 224 226 229 231 228 221 215 214 215 217 221 224 227 231 233 229 227 228 228 227 228 229 231 229 226 225 224 224 226 223 216 212 214 217 219 222 223 223 224 225 225 226 227 228 230 230 230
261 255 250 251 248 244 241 235 232 231 232 232 232 232 232 231 228 225 224 223 223 224 227 228 228 228 227 228 231 234 233 231 229 225 222 219 218 220 223 226 232 235 234 231 230 230 228 228 229 230 228 226 225 224 223 224 223 219 216 216 218 219 221 224 226 227 227 227 227 228 230 231 232 232
244 242 242 247 251 249 243 238 236 235 234 232 230 228 227 226 225 224 223 222 221 220 223 228 231 232 233 234 235 234 230 227 228 231 231 228 225 223 223 225 228 229 228 226 227 229 228 226 228 230 228 227 226 225 223 223 223 222 219 218 219 220 221 224 226 228 228 228 228 229 230 231 233 234
249 244 242 247 255 252 241 234 233 234 236 236 234 232 228 225 225 225 221 219 220 221 223 225 229 233 236 239 239 235 231 227 224 224 226 225 224 223 224 225 226 224 222 220 222 227 227 225 227 228 226 225 226 225 223 222 222 223 222 221 221 221 221 222 223 225 226 227 229 231 232 234 235 237
264 253 244 244 250 251 245 240 236 234 235 237 236 235 232 229 228 228 225 221 220 222 226 228 230 233 236 240 241 235 229 227 224 223 222 219 219 222 224 225 226 225 223 220 219 223 225 224 225 227 226 225 225 224 223 223 222 222 223 223 224 224 224 224 224 226 227 229 231 234 235 238 239 241
258 251 245 243 245 246 244 242 241 239 240 241 240 237 233 229 229 229 227 225 223 224 227 230 232 232 233 236 238 234 226 222 220 220 219 215 215 219 222 223 224 225 225 222 220 222 224 224 225 228 230 231 230 228 226 224 223 223 223 224 225 226 227 228 229 231 233 234 236 237 237 238 239 240
254 255 256 255 254 252 247 244 243 241 241 242 242 241 237 232 229 229 227 225 223 223 224 228 230 230 228 230 233 233 227 219 215 215 214 213 214 217 219 218 219 221 221 218 218 222 225 228 231 234 236 238 239 237 233 229 226 225 225 225 226 227 227 229 230 233 235 236 237 237 237 237 237 238
260 261 262 263 262 260 254 249 247 246 244 242 239 238 239 237 233 232 231 227 224 222 224 226 227 227 227 227 229 230 225 217 212 212 213 214 215 219 220 218 216 218 219 217 219 225 230 234 238 240 243 245 246 245 241 237 232 228 226 225 226 227 226 226 227 229 231 233 234 236 236 236 235 236
277 277 274 271 266 261 257 254 251 247 245 242 237 233 234 237 236 234 233 230 225 222 223 224 225 226 228 229 228 227 220 213 210 211 214 215 215 219 223 222 220 221 222 222 225 231 234 237 240 244 245 246 246 247 245 241 236 232 229 227 226 225 225 225 225 226 227 227 229 232 235 236 235 235
289 287 284 283 278 269 263 258 253 248 243 240 237 233 232 233 234 234 232 228 224 222 223 223 222 224 227 229 230 225 216 211 210 211 213 213 213 217 223 225 226 225 224 224 228 232 235 239 242 244 244 244 245 246 245 242 239 235 232 230 228 225 225 226 227 228 228 227 226 226 227 230 230 228
285 287 286 286 284 275 267 261 258 255 249 241 237 234 230 229 230 232 233 229 223 221 223 222 220 221 224 225 227 223 216 212 211 213 217 218 217 219 224 228 231 231 231 232 232 232 235 241 244 243 242 244 245 244 243 242 239 236 234 233 231 228 226 227 228 229 230 229 228 226 226 227 228 226
285 290 290 286 280 273 268 266 263 260 254 245 235 229 226 225 226 228 230 230 226 221 218 216 215 217 221 221 221 221 219 214 210 211 218 222 222 224 226 229 230 229 228 232 235 235 237 241 241 241 241 243 244 244 245 244 241 239 237 235 233 231 228 228 229 229 229 229 229 229 229 231 232 231
289 286 284 281 275 264 256 259 264 266 260 245 230 222 220 220 221 223 224 226 225 220 214 210 209 212 218 220 219 217 217 215 210 209 212 215 218 222 225 226 227 227 226 229 233 236 238 238 235 236 238 241 243 245 246 247 245 243 240 238 236 234 231 230 230 230 230 230 230 231 232 234 234 235
293 284 287 293 281 261 255 259 263 264 254 230 213 210 212 216 218 219 218 219 220 216 211 208 208 211 217 220 219 217 216 216 214 212 213 215 217 221 224 225 228 230 229 229 230 233 238 238 235 235 237 239 241 242 242 244 245 244 242 240 239 237 234 232 232 231 231 232 232 233 235 236 236 236
309 306 317 319 289 254 280 284 273 257 232 213 205 204 210 216 216 213 212 214 214 210 206 204 205 209 213 215 217 217 217 218 219 217 217 220 222 224 226 229 232 233 232 230 229 232 237 239 237 236 238 239 240 239 238 239 241 241 239 239 240 240 239 237 236 235 235 235 236 236 236 237 237 237
350 346 344 344 336 268 258 269 310 299 225 204 206 210 214 216 211 206 208 211 210 207 205 201 199 203 209 210 211 213 213 215 217 219 221 224 227 227 228 228 230 231 230 229 229 231 234 237 236 236 238 241 242 239 236 236 238 239 239 240 242 243 244 243 241 240 238 238 238 238 238 239 239 239
358 358 3 22 48 24 253 237 280 303 190 180 193 202 200 198 198 200 205 208 207 204 203 200 198 201 206 206 205 207 209 212 216 220 224 227 229 231 231 231 232 233 232 231 232 233 234 235 235 235 236 239 240 239 237 237 239 242 243 244 245 246 246 246 245 244 242 241 241 242 242 242 242 242
354 8 25 42 61 49 17 268 257 225 176 169 178 180 177 180 189 198 204 204 202 200 202 203 203 204 205 206 206 208 213 216 219 222 225 229 233 236 237 237 238 239 239 239 239 239 239 238 236 235 236 237 237 237 237 238 242 245 246 247 247 248 248 249 248 247 246 246 246 247 247 246 245 244
15 32 42 51 62 68 69 67 61 179 166 157 160 165 164 169 180 190 194 192 191 194 200 205 206 205 206 210 215 218 221 222 221 219 221 226 232 237 240 240 242 243 243 242 243 244 243 242 239 235 234 234 234 234 235 236 240 243 245 246 247 248 248 248 248 248 248 248 248 248 248 247 246 245
41 45 55 65 71 80 92 78 61 130 142 143 149 160 162 165 175 186 190 189 190 194 199 202 206 210 213 219 225 228 231 232 229 226 225 227 230 233 236 238 241 243 242 243 244 244 242 242 239 236 233 231 230 231 233 235 237 240 243 245 246 248 248 248 247 248 248 248 248 248 249 250 249 249
50 51 61 72 78 86 89 74 68 90 109 117 130 148 155 158 167 180 187 189 192 197 202 206 212 217 221 225 230 233 235 236 236 234 234 234 234 236 237 238 240 242 242 243 245 244 242 241 239 236 233 230 229 231 235 237 238 240 243 245 246 246 246 246 246 247 248 248 249 249 251 253 254 253
50 52 60 69 78 86 90 89 87 91 96 102 112 125 133 137 142 152 162 170 178 188 196 202 208 213 216 220 225 229 229 231 231 232 233 234 235 237 239 240 241 243 244 245 245 244 242 241 238 236 234 232 232 234 238 242 244 247 249 249 248 247 246 245 246 248 248 249 250 251 253 255 255 253
46 49 59 71 81 89 94 96 96 97 98 102 107 112 118 124 132 143 158 172 182 190 198 204 210 214 217 220 224 227 228 230 230 230 231 233 234 236 237 239 242 244 246 247 246 244 242 239 237 235 234 234 237 243 248 253 255 255 254 252 249 248 247 246 246 247 247 247 249 250 251 252 252 249
42 45 55 71 85 94 97 95 93 95 97 99 103 108 113 122 134 150 168 182 190 195 201 208 214 219 223 227 229 231 233 234 234 234 234 234 235 237 239 240 243 244 246 248 246 244 240 238 236 236 236 239 245 251 256 257 256 255 253 251 249 248 247 245 245 245 245 245 246 246 247 248 248 247
42 45 53 65 79 90 94 91 87 86 86 87 89 94 101 115 136 159 177 191 201 207 213 220 224 227 231 233 233 234 236 237 237 237 236 234 234 235 237 239 240 242 245 246 245 241 239 237 238 240 242 245 250 253 254 254 255 255 252 250 248 246 244 243 242 243 242 242 241 242 243 244 245 245
40 45 51 59 71 81 85 84 80 76 71 67 61 56 52 51 57 213 219 224 229 232 234 235 234 234 234 234 234 233 232 232 234 235 233 230 228 227 230 234 237 239 241 241 240 240 240 240 242 244 247 250 252 252 253 254 256 255 252 249 248 247 246 244 243 243 242 240 239 239 240 241 243 245
40 43 49 55 59 58 59 66 67 48 31 20 7 351 335 322 310 293 276 265 258 253 250 247 241 234 230 230 233 232 228 227 230 231 229 226 222 220 224 230 233 236 237 237 238 240 241 243 246 249 251 253 253 253 254 254 254 254 252 250 249 248 247 247 246 245 244 243 242 242 243 244 246 250
31 35 42 51 55 50 40 24 351 341 346 347 337 333 334 331 315 297 290 287 278 270 266 261 249 235 229 230 234 234 230 226 225 225 226 224 219 216 218 223 228 233 236 238 241 244 246 249 252 252 252 252 251 251 252 252 253 253 253 251 250 249 248 248 248 247 247 246 245 245 246 248 251 255
32 33 32 34 35 32 24 8 347 341 346 342 330 331 340 349 344 327 313 304 292 280 273 267 253 239 233 234 236 237 234 227 223 221 223 223 220 217 217 221 228 235 238 242 246 249 251 252 252 252 252 251 249 249 250 251 252 252 251 250 250 249 249 250 250 251 251 251 249 250 252 254 256 259
Height
1392 1392 1393 1395 1395 1396 1398 1399 1401 1402 1403 1404 1406 1407 1408 1409 1409 1410 1411 1411 1413 1416 1417 1418 1420 1422 1424 1426 1429 1432 1435 1439 1443 1446 1450 1455 1459 1464 1468 1471 1474 1476 1478 1481 1484 1487 1490 1493 1495 1498 1501 1504 1506 1509 1511 1514 1516 1518 1520 1522 1524 1526 1528 1530 1532 1534 1536 1538 1540 1542 1544 1546 1548 1550
1388 1388 1389 1390 1391 1392 1393 1395 1396 1398 1399 1400 1401 1402 1404 1405 1404 1405 1407 1407 1409 1412 1413 1414 1417 1418 1420 1422 1424 1427 1430 1433 1437 1440 1444 1448 1453 1458 1462 1465 1469 1471 1473 1476 1478 1481 1484 1487 1490 1493 1495 1498 1501 1504 1507 1509 1511 1513 1515 1518 1520 1522 1525 1527 1529 1531 1532 1534 1536 1539 1541 1542 1544 1546
1384 1384 1385 1386 1387 1388 1389 1390 1392 1394 1395 1396 1396 1397 1399 1400 1401 1402 1404 1404 1406 1408 1409 1411 1413 1415 1417 1419 1420 1422 1425 1428 1432 1435 1439 1444 1447 1451 1455 1459 1463 1466 1468 1470 1473 1476 1479 1482 1485 1487 1490 1493 1496 1499 1502 1504 1507 1509 1511 1514 1516 1518 1521 1523 1525 1527 1529 1531 1533 1535 1537 1539 1540 1542
1380 1380 1381 1382 1383 1384 1385 1386 1388 1390 1391 1392 1392 1393 1394 1395 1397 1398 1400 1400 1402 1404 1406 1408 1410 1412 1414 1416 1417 1419 1421 1424 1427 1431 1435 1439 1442 1445 1449 1453 1457 1460 1463 1464 1467 1469 1472 1475 1479 1482 1485 1488 1490 1493 1496 1499 1502 1505 1507 1509 1512 1514 1517 1519 1521 1524 1525 1527 1530 1531 1533 1536 1537 1539
1377 1377 1377 1378 1379 1381 1381 1382 1384 1385 1387 1388 1389 1390 1391 1392 1393 1394 1395 1396 1398 1400 1402 1405 1407 1409 1411 1412 1414 1416 1417 1420 1423 1426 1430 1433 1437 1440 1443 1447 1451 1455 1457 1458 1460 1463 1466 1469 1472 1476 1479 1482 1486 1488 1491 1493 1496 1500 1502 1505 1507 1509 1512 1515 1517 1519 1522 1524 1526 1528 1530 1532 1534 1536
1373 1373 1374 1375 1376 1377 1378 1379 1380 1381 1383 1385 1386 1387 1388 1389 1390 1391 1393 1394 1395 1397 1399 1401 1404 1406 1408 1410 1411 1413 1415 1418 1420 1423 1426 1429 1433 1436 1439 1443 1447 1450 1452 1454 1456 1458 1460 1464 1466 1469 1472 1476 1480 1483 1486 1488 1491 1494 1497 1500 1503 1505 1507 1510 1512 1515 1518 1520 1522 1524 1526 1528 1530 1532
1370 1371 1371 1372 1373 1374 1375 1376 1377 1378 1380 1381 1383 1384 1385 1386 1388 1389 1391 1392 1394 1395 1397 1399 1401 1403 1405 1407 1409 1411 1413 1416 1418 1420 1423 1426 1429 1432 1435 1439 1443 1446 1448 1450 1451 1453 1455 1458 1461 1463 1466 1469 1473 1477 1480 1483 1486 1488 1491 1494 1497 1500 1502 1504 1507 1510 1513 1516 1518 1521 1523 1525 1527 1529
1366 1368 1368 1369 1371 1372 1372 1373 1374 1375 1377 1379 1380 1382 1383 1384 1385 1387 1389 1390 1392 1394 1396 1397 1399 1401 1403 1405 1407 1408 1410 1413 1415 1418 1421 1423 1426 1429 1432 1435 1439 1442 1444 1445 1447 1448 1450 1453 1456 1458 1461 1464 1467 1471 1474 1477 1480 1483 1486 1489 1492 1495 1498 1500 1502 1504 1508 1511 1514 1517 1519 1521 1524 1526
1363 1365 1366 1367 1368 1369 1370 1371 1372 1373 1375 1377 1378 1379 1381 1382 1384 1385 1387 1389 1391 1393 1395 1397 1398 1399 1401 1403 1405 1407 1408 1410 1413 1415 1418 1421 1424 1427 1430 1432 1435 1438 1439 1440 1441 1443 1445 1448 1451 1453 1456 1459 1463 1466 1469 1472 1474 1477 1480 1483 1486 1489 1493 1495 1497 1499 1502 1506 1509 1512 1515 1518 1520 1522
1361 1362 1363 1365 1366 1367 1368 1369 1370 1371 1373 1375 1376 1377 1379 1381 1383 1384 1385 1387 1389 1391 1393 1395 1397 1398 1399 1401 1403 1405 1407 1408 1410 1413 1415 1418 1421 1424 1427 1429 1431 1433 1434 1435 1436 1438 1441 1444 1446 1449 1452 1454 1458 1461 1465 1467 1470 1473 1476 1478 1481 1484 1487 1490 1492 1494 1497 1500 1504 1507 1510 1513 1516 1518
1358 1359 1360 1362 1363 1364 1365 1367 1368 1370 1371 1373 1374 1376 1378 1380 1381 1383 1384 1386 1387 1389 1391 1393 1395 1396 1398 1400 1401 1403 1405 1407 1409 1411 1414 1416 1419 1421 1424 1426 1428 1429 1430 1432 1433 1435 1438 1440 1443 1446 1448 1451 1454 1457 1460 1463 1466 1469 1472 1473 1476 1479 1482 1485 1488 1490 1492 1495 1498 1502 1506 1508 1511 1513
1355 1355 1357 1359 1360 1361 1363 1364 1366 1368 1369 1371 1372 1374 1376 1378 1379 1381 1382 1384 1385 1387 1389 1391 1392 1394 1396 1398 1399 1401 1402 1404 1406 1408 1410 1413 1415 1418 1420 1422 1424 1426 1428 1430 1431 1433 1435 1437 1440 1442 1444 1447 1451 1454 1456 1458 1461 1464 1467 1468 1471 1474 1477 1480 1483 1485 1488 1490 1493 1496 1500 1503 1506 1509
1352 1353 1354 1356 1357 1359 1360 1362 1364 1365 1367 1368 1370 1372 1374 1375 1377 1379 1380 1382 1383 1385 1387 1389 1390 1392 1393 1395 1397 1398 1400 1402 1403 1405 1407 1410 1412 1415 1418 1420 1422 1424 1426 1428 1430 1431 1433 1435 1437 1439 1441 1444 1447 1450 1452 1454 1456 1459 1462 1464 1466 1469 1472 1475 1478 1481 1483 1486 1488 1491 1495 1498 1501 1504
1350 1351 1352 1353 1355 1356 1358 1359 1361 1363 1364 1366 1367 1369 1371 1373 1374 1376 1377 1379 1380 1382 1384 1386 1387 1389 1390 1392 1394 1396 1398 1400 1401 1403 1405 1407 1410 1412 1415 1417 1419 1421 1423 1425 1427 1428 1430 1432 1434 1436 1438 1441 1444 1446 1449 1451 1453 1456 1458 1461 1463 1465 1467 1470 1474 1476 1479 1481 1484 1487 1490 1493 1497 1499
1349 1349 1350 1351 1352 1354 1355 1357 1358 1360 1362 1363 1365 1366 1368 1370 1372 1373 1375 1376 1377 1379 1381 1383 1385 1386 1387 1389 1391 1393 1395 1397 1399 1402 1404 1406 1408 1410 1412 1414 1416 1418 1420 1422 1424 1426 1428 1429 1431 1433 1436 1438 1440 1443 1445 1448 1450 1453 1456 1458 1460 1461 1463 1466 1469 1472 1474 1477 1480 1483 1486 1489 1492 1494
1347 1348 1348 1349 1350 1351 1353 1354 1356 1357 1359 1361 1362 1364 1366 1367 1369 1371 1372 1374 1375 1377 1378 1380 1382 1383 1384 1386 1388 1390 1392 1394 1397 1399 1401 1403 1405 1408 1410 1411 1413 1416 1418 1420 1422 1424 1426 1427 1429 1431 1433 1435 1437 1440 1442 1445 1447 1450 1453 1455 1457 1458 1460 1462 1465 1468 1470 1472 1476 1479 1482 1485 1487 1489
1345 1346 1347 1348 1348 1349 1350 1351 1353 1354 1356 1358 1359 1361 1363 1364 1366 1368 1369 1371 1373 1375 1376 1378 1379 1381 1382 1384 1386 1387 1390 1392 1394 1396 1398 1401 1403 1405 1407 1409 1411 1414 1416 1418 1420 1422 1423 1425 1426 1428 1430 1432 1434 1436 1439 1441 1444 1447 1449 1451 1453 1455 1457 1459 1462 1464 1466 1469 1472 1475 1478 1480 1483 1485
1343 1344 1345 1346 1347 1347 1348 1349 1350 1352 1353 1355 1356 1358 1360 1361 1363 1365 1366 1368 1370 1372 1374 1375 1377 1379 1380 1382 1383 1386 1388 1390 1392 1393 1395 1397 1399 1401 1404 1407 1410 1412 1414 1416 1418 1419 1420 1422 1424 1425 1427 1429 1431 1433 1436 1438 1440 1443 1446 1448 1450 1452 1454 1456 1458 1460 1463 1465 1468 1471 1473 1476 1478 1480
1342 1342 1343 1344 1345 1346 1346 1347 1348 1349 1351 1352 1353 1355 1356 1358 1360 1361 1363 1365 1367 1369 1371 1373 1374 1376 1378 1380 1382 1384 1386 1388 1390 1392 1394 1396 1398 1400 1402 1405 1407 1409 1411 1413 1414 1415 1417 1419 1421 1422 1425 1427 1429 1431 1433 1435 1437 1439 1442 1444 1446 1448 1450 1453 1455 1457 1459 1462 1464 1467 1469 1471 1473 1475
1340 1341 1341 1342 1343 1343 1344 1345 1346 1347 1348 1349 1350 1352 1353 1355 1357 1358 1360 1362 1365 1367 1368 1370 1372 1374 1376 1378 1380 1382 1384 1386 1388 1391 1393 1394 1396 1398 1399 1401 1403 1405 1407 1409 1411 1412 1414 1416 1418 1420 1422 1424 1426 1428 1430 1432 1434 1436 1438 1440 1442 1444 1446 1448 1451 1453 1456 1458 1460 1462 1464 1466 1468 1470
1338 1338 1339 1340 1340 1340 1341 1342 1344 1345 1346 1346 1347 1349 1350 1352 1354 1355 1358 1360 1362 1364 1366 1368 1370 1372 1374 1376 1377 1379 1381 1384 1386 1388 1389 1391 1393 1395 1396 1398 1400 1402 1404 1406 1408 1410 1411 1414 1416 1417 1419 1421 1423 1425 1427 1429 1430 1432 1434 1436 1438 1440 1443 1444 1446 1448 1451 1453 1456 1457 1459 1461 1463 1465
1335 1336 1336 1337 1337 1338 1338 1340 1341 1342 1343 1344 1344 1345 1347 1349 1350 1352 1355 1357 1360 1362 1364 1365 1367 1369 1371 1373 1375 1376 1378 1381 1383 1384 1385 1388 1390 1392 1393 1395 1397 1400 1402 1404 1406 1407 1409 1411 1413 1415 1416 1418 1420 1422 1423 1425 1427 1428 1430 1432 1434 1436 1438 1440 1442 1444 1446 1448 1451 1452 1454 1456 1458 1460
1333 1333 1333 1334 1334 1334 1335 1336 1337 1339 1340 1340 1341 1342 1344 1345 1347 1349 1352 1354 1356 1358 1360 1362 1364 1366 1368 1370 1372 1373 1376 1378 1379 1381 1383 1386 1387 1389 1391 1393 1395 1396 1398 1400 1403 1405 1406 1409 1410 1412 1414 1415 1416 1418 1420 1421 1423 1424 1426 1428 1430 1432 1434 1436 1438 1439 1441 1443 1446 1447 1449 1451 1453 1454
1331 1331 1331 1331 1331 1331 1331 1332 1333 1334 1336 1337 1338 1339 1340 1341 1344 1346 1349 1350 1353 1355 1357 1359 1361 1363 1365 1367 1369 1371 1373 1375 1376 1378 1381 1383 1385 1387 1389 1390 1392 1393 1395 1398 1401 1403 1404 1406 1408 1409 1411 1412 1413 1414 1416 1418 1419 1421 1422 1424 1425 1427 1429 1430 1432 1434 1436 1438 1441 1442 1444 1446 1448 1450
1328 1328 1328 1328 1327 1328 1328 1328 1329 1330 1331 1332 1333 1334 1336 1338 1341 1344 1345 1347 1350 1352 1354 1356 1358 1360 1362 1364 1366 1368 1370 1371 1373 1376 1378 1380 1382 1385 1387 1388 1390 1391 1394 1397 1399 1400 1402 1403 1405 1406 1408 1409 1409 1410 1412 1414 1415 1417 1418 1420 1421 1423 1424 1426 1427 1429 1431 1434 1436 1438 1440 1441 1443 1445
1326 1325 1325 1324 1324 1324 1325 1325 1325 1326 1327 1328 1329 1330 1333 1336 1338 1340 1342 1345 1347 1349 1351 1353 1355 1357 1359 1361 1363 1365 1367 1369 1371 1373 1375 1378 1380 1383 1384 1386 1388 1390 1392 1395 1396 1397 1399 1400 1402 1403 1404 1405 1406 1407 1408 1410 1412 1414 1415 1416 1418 1419 1421 1422 1424 1425 1427 1429 1431 1433 1435 1436 1438 1440
1324 1323 1322 1321 1321 1321 1321 1322 1322 1323 1323 1324 1325 1327 1330 1332 1335 1337 1339 1341 1344 1346 1348 1350 1351 1354 1356 1358 1360 1362 1364 1366 1369 1371 1374 1376 1378 1380 1382 1384 1386 1388 1390 1392 1393 1394 1396 1397 1399 1400 1402 1403 1404 1404 1405 1406 1408 1410 1411 1413 1415 1416 1418 1419 1420 1422 1423 1425 1427 1429 1430 1432 1434 1436
1321 1320 1320 1319 1319 1319 1319 1319 1320 1320 1320 1321 1322 1324 1326 1329 1331 1334 1336 1338 1340 1343 1345 1346 1348 1351 1353 1355 1357 1359 1362 1364 1367 1370 1372 1374 1376 1378 1379 1381 1383 1385 1388 1389 1391 1392 1393 1395 1396 1398 1399 1400 1401 1401 1402 1404 1405 1407 1409 1410 1411 1413 1414 1415 1416 1418 1419 1421 1423 1425 1426 1428 1429 1431
1320 1319 1318 1317 1317 1317 1317 1317 1317 1316 1316 1317 1318 1321 1323 1325 1328 1330 1332 1335 1338 1340 1342 1344 1346 1349 1351 1353 1355 1358 1360 1362 1365 1367 1370 1372 1373 1375 1377 1379 1381 1382 1385 1386 1388 1389 1391 1392 1394 1395 1397 1397 1398 1399 1400 1401 1403 1404 1406 1407 1408 1409 1411 1412 1413 1414 1416 1417 1419 1420 1422 1423 1425 1427
1319 1318 1317 1316 1315 1314 1314 1315 1315 1314 1314 1314 1316 1318 1321 1323 1325 1327 1330 1332 1335 1337 1340 1342 1344 1347 1349 1352 1354 1356 1358 1360 1362 1364 1367 1369 1370 1372 1374 1376 1378 1379 1381 1383 1385 1386 1388 1389 1391 1393 1393 1394 1395 1396 1398 1399 1400 1402 1403 1404 1405 1406 1407 1408 1409 1411 1412 1413 1414 1416 1417 1419 1420 1421
1318 1317 1316 1314 1313 1313 1313 1313 1313 1313 1313 1313 1315 1317 1319 1321 1323 1325 1327 1330 1333 1335 1338 1340 1343 1345 1348 1350 1351 1353 1355 1357 1359 1362 1364 1366 1368 1370 1372 1373 1375 1376 1378 1380 1382 1383 1385 1386 1388 1389 1390 1391 1392 1393 1395 1396 1397 1398 1399 1400 1402 1403 1404 1405 1406 1407 1409 1410 1411 1412 1413 1414 1415 1416
1316 1316 1314 1313 1312 1312 1312 1313 1312 1312 1312 1313 1315 1316 1318 1320 1321 1323 1326 1329 1332 1334 1337 1339 1341 1344 1346 1347 1349 1351 1353 1355 1357 1360 1362 1363 1365 1367 1369 1370 1371 1373 1375 1376 1378 1380 1382 1384 1385 1387 1387 1388 1389 1391 1392 1393 1393 1394 1396 1397 1398 1399 1400 1401 1403 1404 1405 1406 1407 1407 1408 1409 1410 1411
1316 1315 1314 1313 1312 1312 1312 1312 1312 1312 1312 1313 1314 1316 1317 1319 1321 1323 1325 1328 1331 1333 1336 1338 1340 1342 1344 1346 1348 1349 1351 1353 1355 1357 1359 1361 1362 1364 1365 1367 1368 1369 1371 1373 1375 1377 1378 1380 1382 1383 1384 1385 1386 1388 1389 1389 1390 1391 1393 1394 1394 1395 1396 1397 1399 1400 1401 1401 1402 1403 1403 1404 1405 1406
1317 1315 1314 1313 1313 1313 1313 1313 1313 1312 1312 1313 1314 1315 1317 1318 1320 1323 1325 1328 1330 1332 1335 1337 1339 1341 1342 1344 1346 1348 1349 1351 1353 1355 1357 1358 1360 1361 1362 1364 1365 1366 1368 1370 1371 1373 1375 1376 1378 1379 1381 1382 1383 1384 1385 1386 1386 1388 1389 1390 1391 1391 1393 1394 1395 1396 1396 1397 1397 1398 1398 1399 1400 1401
1317 1316 1315 1314 1314 1314 1314 1314 1313 1313 1313 1314 1314 1316 1317 1319 1321 1323 1325 1328 1330 1332 1334 1336 1338 1340 1341 1343 1344 1346 1347 1349 1351 1352 1354 1355 1357 1358 1360 1361 1362 1363 1365 1366 1368 1370 1371 1372 1374 1375 1376 1378 1379 1380 1381 1382 1383 1384 1385 1386 1386 1387 1389 1390 1391 1391 1392 1392 1393 1393 1393 1393 1395 1396
1318 1317 1316 1315 1315 1315 1315 1315 1314 1314 1314 1315 1315 1317 1318 1320 1322 1324 1325 1327 1329 1331 1333 1335 1336 1338 1340 1341 1343 1344 1346 1347 1349 1350 1351 1352 1354 1355 1357 1358 1359 1360 1361 1363 1364 1366 1367 1368 1370 1371 1372 1373 1374 1375 1375 1377 1378 1380 1381 1382 1383 1384 1385 1386 1386 1386 1387 1387 1388 1388 1388 1388 1390 1393
1320 1319 1318 1317 1317 1317 1317 1317 1316 1316 1316 1316 1317 1318 1319 1320 1322 1324 1325 1327 1329 1331 1332 1334 1335 1337 1338 1340 1341 1343 1344 1345 1347 1348 1349 1350 1351 1352 1353 1354 1355 1356 1358 1359 1361 1362 1364 1365 1366 1367 1368 1369 1370 1370 1371 1373 1374 1376 1377 1377 1378 1379 1381 1381 1381 1381 1382 1382 1383 1383 1384 1385 1387 1389
1321 1321 1320 1320 1319 1318 1318 1318 1318 1318 1318 1319 1319 1320 1321 1322 1323 1325 1326 1328 1329 1331 1332 1333 1335 1336 1337 1339 1340 1341 1342 1343 1344 1346 1347 1348 1349 1350 1351 1351 1352 1353 1354 1356 1357 1359 1360 1361 1362 1364 1365 1365 1365 1366 1368 1369 1371 1372 1373 1374 1374 1375 1376 1377 1376 1377 1378 1378 1379 1380 1381 1381 1382 1385
1323 1323 1322 1322 1321 1321 1320 1320 1320 1320 1320 1321 1321 1322 1323 1323 1324 1326 1327 1328 1329 1330 1332 1333 1334 1335 1336 1337 1338 1339 1340 1341 1342 1343 1344 1345 1346 1347 1348 1349 1350 1351 1352 1353 1354 1355 1356 1357 1359 1360 1362 1362 1363 1364 1365 1367 1367 1368 1369 1370 1370 1371 1371 1372 1372 1373 1374 1374 1375 1376 1376 1377 1378 1379
1325 1325 1324 1324 1323 1323 1323 1323 1323 1323 1323 1323 1323 1324 1324 1325 1326 1327 1328 1329 1329 1330 1331 1332 1333 1334 1335 1336 1336 1337 1338 1339 1339 1340 1341 1342 1343 1344 1345 1346 1347 1348 1349 1350 1351 1352 1353 1355 1356 1358 1360 1360 1361 1362 1363 1363 1364 1364 1365 1365 1366 1367 1367 1368 1368 1369 1369 1370 1371 1371 1372 1372 1373 1374
1328 1327 1326 1326 1326 1325 1325 1325 1325 1325 1325 1325 1325 1325 1326 1326 1326 1327 1328 1328 1329 1330 1330 1331 1332 1332 1333 1334 1334 1335 1335 1336 1337 1337 1338 1339 1340 1341 1342 1343 1344 1345 1346 1347 1348 1350 1351 1353 1355 1356 1357 1358 1358 1359 1359 1359 1359 1360 1361 1362 1362 1363 1363 1364 1364 1365 1365 1366 1367 1367 1367 1368 1369 1369
1329 1329 1328 1328 1328 1327 1327 1327 1327 1327 1326 1326 1326 1326 1327 1327 1327 1327 1328 1328 1329 1329 1329 1330 1330 1331 1331 1332 1332 1333 1333 1334 1335 1335 1336 1337 1337 1338 1339 1340 1341 1343 1344 1345 1347 1349 1351 1352 1353 1354 1354 1355 1355 1355 1355 1355 1355 1356 1357 1358 1359 1359 1360 1360 1361 1361 1361 1362 1362 1363 1363 1364 1364 1364
1331 1330 1330 1329 1329 1329 1328 1328 1328 1328 1328 1327 1327 1327 1327 1327 1327 1327 1327 1328 1328 1328 1328 1328 1329 1329 1330 1330 1330 1331 1332 1332 1333 1334 1334 1335 1336 1337 1338 1339 1340 1341 1343 1344 1346 1347 1348 1349 1350 1351 1351 1351 1352 1351 1351 1351 1352 1353 1354 1355 1355 1356 1356 1357 1357 1357 1357 1358 1358 1359 1359 1360 1359 1359
1332 1331 1331 1330 1330 1329 1329 1329 1329 1328 1328 1328 1328 1327 1327 1327 1327 1327 1327 1327 1327 1327 1327 1327 1327 1328 1328 1329 1329 1330 1330 1331 1332 1332 1333 1334 1335 1335 1337 1338 1339 1340 1341 1343 1344 1345 1346 1346 1347 1347 1347 1348 1348 1348 1347 1348 1349 1350 1350 1351 1351 1352 1352 1353 1353 1353 1353 1353 1353 1354 1355 1355 1354 1355
1333 1332 1331 1331 1330 1330 1329 1329 1329 1328 1328 1328 1328 1327 1327 1327 1327 1326 1326 1326 1326 1326 1326 1326 1326 1327 1327 1327 1328 1328 1329 1329 1330 1331 1332 1332 1333 1334 1335 1336 1337 1339 1340 1341 1341 1342 1343 1343 1343 1343 1344 1344 1344 1344 1344 1344 1345 1346 1346 1346 1347 1348 1348 1349 1348 1348 1347 1347 1348 1349 1350 1350 1350 1350